FENGYUN 1C DEB, 31663

Orbit data source: Space-Track

FENGYUN 1C DEB, 31663 is space debris in SSO originally from a launch on Mon, 10 May 1999 UTC launched from the Taiyaun Space Center, China (TSC). Fengyun 1C debris stems from the Chinese weather satellite Fengyun-1C, which was intentionally destroyed by a Chinese anti-satellite missile in 2007. This event dramatically increased the amount of space debris, with thousands of trackable fragments posing hazards to satellites and human spaceflight. The Fengyun 1C debris cloud has become a focal point in discussions about space sustainability and the need for international regulations to prevent the creation of new debris.

Loading next visibility...
Identifier
31663, 1999-025CBV
Orbit
SSO
Country
Flag of CNCN / PRC
Related business
Manufacturer
Unknown
Mission
Spacecraft
Bus & Motor
Unknown
Mass
Unknown
Launch date (UTC)
1999-05-10 (27 years ago)
Launch vehicle
Unknown
Launch site
Taiyaun Space Center, China (TSC)
Object type
Payload
Rocket body
Debris
Shape & HBR
Unknown shape, 0.1 m
Radar Cross Section
Small (<0.1 m²)

Expand to show TLE details & history
Last TLE update: 1 week ago

TLE from 1 week ago
0 FENGYUN 1C DEB
1 31663U 99025CBV 26152.02554471  .00003756  00000-0  40018-3 0  9995
2 31663  98.8405  81.1093 0189254  61.7698 300.2473 14.77327622 17876
Epoch: 2026-06-01T00:36Z
TLE epoch observation values (Epoch: 2026-06-01T00:36:47.062Z)
Latitude
-0.00011°
Longitude
-177.60557°
Altitude
575.764 km
Speed
7.608 km/s
True Right ascension
05h 24m 26s
True Declination
0° 00' 00"
Sunlit
Object was in daylight at epoch
Visualization orbit readout
Latitude
Unknown
Longitude
Unknown
Altitude
Unknown
Speed
Unknown
Apparent Right ascension
Unknown
Apparent Declination
Unknown
Sunlit
N/A
Visualization observer readout
Local Sidereal Time
07:07:43
Azimuth
Unknown
Elevation
Unknown
Doppler factor
Unknown
Orbital elements
Apogee altitude
767.583 km
Perigee altitude
502.136 km
Semi-major axis
7,012.997 km
Eccentricity
0.01893
Inclination
98.8405°
RAAN
81.1093°
Arg. of periapsis
61.7698°
True anomaly
298.35162°
Mean anomaly
300.2473°
Eccentric anomaly
299.30169°
Mean motion
3.69562 °/min
Orbital period
97.41 mins
BSTAR
0.00040018
Loading maneuver chart data...
Computing Atmospheric mass density...
Loading historical data...
Loading historical data...
Loading historical data...
Loading historical data...
Loading historical data...
Loading historical data...
Loading historical data...

Documentation

Showing up to 5 results
|